| time (UTC) | temp F | wind direction | speed MPH | gust MPH | rain 1hr in | rain 24hr in | rain mn in | humidity % | barometer mb |
| 20260508064515 | 62 | 158 | 7.0 | 20.0 | 0.03 | 0.36 | 0.34 | 83 | 1002.8 |
| 20260508063517 | 62 | 90 | 4.0 | 12.0 | 0.03 | 0.36 | 0.34 | 83 | 1002.7 |
| 20260508062515 | 62 | 113 | 4.0 | 12.0 | 0.02 | 0.35 | 0.33 | 83 | 1002.9 |
| 20260508061517 | 62 | 113 | 8.0 | 23.0 | 0.02 | 0.35 | 0.33 | 83 | 1002.1 |
| 20260508060537 | 62 | 113 | 5.0 | 19.0 | 0.02 | 0.34 | 0.32 | 83 | 1003.5 |
| 20260508055516 | 62 | 113 | 6.0 | 15.0 | 0.02 | 0.33 | 0.31 | 83 | 1003.0 |
| 20260508054517 | 62 | 90 | 7.0 | 18.0 | 0.20 | 0.33 | 0.31 | 83 | 1003.7 |
| 20260508053557 | 62 | 135 | 5.0 | 13.0 | 0.21 | 0.33 | 0.31 | 83 | 1003.1 |
| 20260508052535 | 62 | 68 | 4.0 | 14.0 | 0.21 | 0.33 | 0.31 | 84 | 1003.4 |
| 20260508051519 | 62 | 90 | 8.0 | 18.0 | 0.21 | 0.33 | 0.31 | 84 | 1003.5 |
| 20260508050517 | 62 | 90 | 7.0 | 16.0 | 0.20 | 0.32 | 0.30 | 85 | 1003.2 |
| 20260508045517 | 62 | 90 | 7.0 | 17.0 | 0.19 | 0.31 | 0.29 | 88 | 1003.3 |
| 20260508044517 | 63 | 68 | 4.0 | 11.0 | 0.01 | 0.13 | 0.11 | 88 | 1003.6 |
| 20260508043517 | 63 | 113 | 4.0 | 13.0 | 0.01 | 0.12 | 0.10 | 87 | 1003.4 |
| 20260508042518 | 63 | 113 | 4.0 | 9.0 | 0.01 | 0.12 | 0.10 | 87 | 1003.2 |
| 20260508041519 | 63 | 90 | 4.0 | 14.0 | 0.02 | 0.12 | 0.10 | 87 | 1003.1 |
| 20260508040559 | 63 | 90 | 5.0 | 10.0 | 0.04 | 0.12 | 0.10 | 87 | 1002.9 |
| 20260508035539 | 63 | 113 | 6.0 | 11.0 | 0.12 | 0.12 | 0.10 | 87 | 1003.0 |
| 20260508034516 | 63 | 45 | 4.0 | 10.0 | 0.12 | 0.12 | 0.10 | 87 | 1003.3 |
| 20260508033539 | 63 | 90 | 5.0 | 13.0 | 0.11 | 0.11 | 0.09 | 87 | 1003.7 |
| 20260508032517 | 63 | 315 | 10.0 | 19.0 | 0.11 | 0.11 | 0.09 | 87 | 1003.8 |
| 20260508031517 | 63 | 315 | 12.0 | 22.0 | 0.10 | 0.10 | 0.08 | 87 | 1003.6 |
| 20260508030517 | 64 | 293 | 13.0 | 22.0 | 0.08 | 0.08 | 0.06 | 86 | 1004.1 |
| 20260508025516 | 67 | 315 | 16.0 | 31.0 | 0.00 | 0.00 | 0.00 | 79 | 1004.4 |
| 20260508024516 | 69 | 293 | 12.0 | 21.0 | 0.00 | 0.00 | 0.00 | 71 | 1004.1 |
| 20260508023516 | 73 | 113 | 9.0 | 26.0 | 0.00 | 0.00 | 0.00 | 64 | 1004.3 |
| 20260508022516 | 74 | 113 | 7.0 | 17.0 | 0.00 | 0.00 | 0.00 | 65 | 1003.6 |
| 20260508021517 | 75 | 113 | 7.0 | 17.0 | 0.00 | 0.00 | 0.00 | 64 | 1003.4 |
| 20260508020516 | 75 | 113 | 10.0 | 27.0 | 0.00 | 0.00 | 0.00 | 64 | 1003.0 |
| 20260508015516 | 75 | 90 | 12.0 | 29.0 | 0.00 | 0.00 | 0.00 | 64 | 1002.4 |
| 20260508014516 | 75 | 90 | 12.0 | 26.0 | 0.00 | 0.00 | 0.00 | 64 | 1002.5 |
| 20260508013516 | 74 | 90 | 11.0 | 24.0 | 0.00 | 0.00 | 0.00 | 64 | 1002.5 |
| 20260508012516 | 75 | 90 | 11.0 | 33.0 | 0.00 | 0.00 | 0.00 | 63 | 1002.8 |
| 20260508011516 | 75 | 90 | 11.0 | 23.0 | 0.00 | 0.00 | 0.00 | 63 | 1002.8 |
| 20260508010516 | 75 | 90 | 6.0 | 20.0 | 0.00 | 0.00 | 0.00 | 63 | 1002.8 |
| 20260508005517 | 75 | 90 | 9.0 | 26.0 | 0.00 | 0.00 | 0.00 | 62 | 1002.8 |
| 20260508004618 | 75 | 90 | 10.0 | 23.0 | 0.00 | 0.00 | 0.00 | 61 | 1003.0 |
| 20260508003536 | 75 | 113 | 7.0 | 20.0 | 0.00 | 0.00 | 0.00 | 62 | 1003.0 |
| 20260508002516 | 75 | 90 | 11.0 | 21.0 | 0.00 | 0.00 | 0.00 | 61 | 1002.8 |
| 20260508001518 | 75 | 90 | 7.0 | 20.0 | 0.00 | 0.00 | 0.00 | 61 | 1002.9 |
| 20260508000516 | 75 | 113 | 7.0 | 18.0 | 0.00 | 0.00 | 0.00 | 61 | 1003.0 |
| 20260507235539 | 75 | 90 | 6.0 | 16.0 | 0.00 | 0.00 | 0.00 | 61 | 1002.9 |
| 20260507234516 | 75 | 90 | 6.0 | 18.0 | 0.00 | 0.00 | 0.00 | 60 | 1002.8 |
| 20260507233516 | 76 | 113 | 9.0 | 21.0 | 0.00 | 0.00 | 0.00 | 60 | 1002.7 |
| 20260507232517 | 76 | 90 | 9.0 | 17.0 | 0.00 | 0.00 | 0.00 | 60 | 1002.7 |
| 20260507231516 | 76 | 113 | 9.0 | 22.0 | 0.00 | 0.00 | 0.00 | 60 | 1002.6 |
| 20260507230537 | 76 | 113 | 6.0 | 21.0 | 0.00 | 0.00 | 0.00 | 60 | 1002.6 |
| 20260507225516 | 76 | 90 | 6.0 | 17.0 | 0.00 | 0.00 | 0.00 | 60 | 1002.7 |
| 20260507224516 | 76 | 90 | 7.0 | 19.0 | 0.00 | 0.00 | 0.00 | 59 | 1002.8 |
| 20260507223516 | 76 | 90 | 9.0 | 19.0 | 0.00 | 0.00 | 0.00 | 59 | 1003.0 |
| 20260507222516 | 77 | 90 | 7.0 | 17.0 | 0.00 | 0.00 | 0.00 | 58 | 1002.9 |
| 20260507221518 | 77 | 113 | 7.0 | 20.0 | 0.00 | 0.00 | 0.00 | 58 | 1002.9 |
| 20260507220516 | 77 | 90 | 6.0 | 16.0 | 0.00 | 0.00 | 0.00 | 58 | 1003.1 |
| 20260507215516 | 77 | 90 | 5.0 | 15.0 | 0.00 | 0.00 | 0.00 | 58 | 1003.3 |
| 20260507214516 | 77 | 90 | 7.0 | 16.0 | 0.00 | 0.00 | 0.00 | 57 | 1003.2 |
| 20260507213516 | 77 | 90 | 9.0 | 20.0 | 0.00 | 0.00 | 0.00 | 57 | 1003.1 |
| 20260507212516 | 78 | 90 | 6.0 | 16.0 | 0.00 | 0.00 | 0.00 | 57 | 1003.4 |
| 20260507211536 | 78 | 113 | 8.0 | 21.0 | 0.00 | 0.00 | 0.00 | 57 | 1003.5 |
| 20260507210516 | 78 | 135 | 6.0 | 22.0 | 0.00 | 0.00 | 0.00 | 56 | 1003.5 |
| 20260507205536 | 78 | 113 | 8.0 | 23.0 | 0.00 | 0.00 | 0.00 | 57 | 1003.5 |
| 20260507204516 | 78 | 90 | 6.0 | 18.0 | 0.00 | 0.00 | 0.00 | 57 | 1003.5 |
| 20260507203536 | 78 | 113 | 6.0 | 15.0 | 0.00 | 0.00 | 0.00 | 57 | 1003.3 |
| 20260507202519 | 79 | 90 | 5.0 | 18.0 | 0.00 | 0.00 | 0.00 | 57 | 1003.2 |
| 20260507201537 | 79 | 90 | 4.0 | 14.0 | 0.00 | 0.00 | 0.00 | 57 | 1003.5 |
| 20260507200516 | 80 | 90 | 6.0 | 16.0 | 0.00 | 0.00 | 0.00 | 56 | 1003.6 |
| 20260507195516 | 79 | 113 | 7.0 | 22.0 | 0.00 | 0.00 | 0.00 | 56 | 1003.4 |
| 20260507194516 | 79 | 113 | 5.0 | 18.0 | 0.00 | 0.00 | 0.00 | 57 | 1003.3 |
| 20260507193517 | 79 | 113 | 6.0 | 22.0 | 0.00 | 0.00 | 0.00 | 57 | 1003.3 |
| 20260507192516 | 79 | 90 | 5.0 | 14.0 | 0.00 | 0.00 | 0.00 | 57 | 1003.5 |
| 20260507191516 | 79 | 113 | 7.0 | 18.0 | 0.00 | 0.00 | 0.00 | 56 | 1003.5 |
| 20260507190515 | 79 | 90 | 5.0 | 25.0 | 0.00 | 0.00 | 0.00 | 55 | 1003.5 |
| 20260507185538 | 79 | 113 | 7.0 | 19.0 | 0.00 | 0.00 | 0.00 | 55 | 1003.5 |
| 20260507184538 | 79 | 135 | 5.0 | 14.0 | 0.00 | 0.00 | 0.00 | 56 | 1003.6 |
| 20260507183536 | 79 | 90 | 8.0 | 20.0 | 0.00 | 0.00 | 0.00 | 56 | 1003.4 |
| 20260507182518 | 79 | 90 | 7.0 | 24.0 | 0.00 | 0.00 | 0.00 | 55 | 1003.6 |
| 20260507181538 | 79 | 113 | 8.0 | 24.0 | 0.00 | 0.00 | 0.00 | 56 | 1003.8 |
| 20260507180516 | 79 | 90 | 8.0 | 24.0 | 0.00 | 0.00 | 0.00 | 55 | 1003.9 |
| 20260507175516 | 79 | 113 | 5.0 | 19.0 | 0.00 | 0.00 | 0.00 | 55 | 1004.0 |
| 20260507174516 | 80 | 90 | 7.0 | 24.0 | 0.00 | 0.00 | 0.00 | 54 | 1004.2 |
| 20260507173537 | 81 | 90 | 8.0 | 23.0 | 0.00 | 0.00 | 0.00 | 52 | 1004.4 |
| 20260507172536 | 81 | 113 | 8.0 | 24.0 | 0.00 | 0.00 | 0.00 | 52 | 1004.5 |
| 20260507171516 | 81 | 90 | 9.0 | 22.0 | 0.00 | 0.00 | 0.00 | 52 | 1004.6 |
| 20260507170515 | 81 | 113 | 9.0 | 25.0 | 0.00 | 0.00 | 0.00 | 52 | 1004.6 |
| 20260507165516 | 81 | 113 | 11.0 | 27.0 | 0.00 | 0.00 | 0.00 | 51 | 1004.4 |
| 20260507164517 | 80 | 113 | 9.0 | 22.0 | 0.00 | 0.00 | 0.00 | 50 | 1004.6 |
| 20260507163519 | 82 | 158 | 4.0 | 11.0 | 0.00 | 0.00 | 0.00 | 49 | 1004.7 |
| 20260507162517 | 81 | 90 | 9.0 | 31.0 | 0.00 | 0.00 | 0.00 | 50 | 1005.1 |
| 20260507161517 | 81 | 90 | 11.0 | 32.0 | 0.00 | 0.00 | 0.00 | 50 | 1005.3 |
| 20260507160516 | 81 | 90 | 9.0 | 26.0 | 0.00 | 0.00 | 0.00 | 51 | 1005.3 |
| 20260507155515 | 80 | 90 | 10.0 | 32.0 | 0.00 | 0.00 | 0.00 | 53 | 1005.3 |
| 20260507154538 | 80 | 90 | 7.0 | 24.0 | 0.00 | 0.00 | 0.00 | 54 | 1005.7 |
| 20260507153557 | 80 | 90 | 7.0 | 24.0 | 0.00 | 0.00 | 0.00 | 56 | 1005.8 |
| 20260507152516 | 79 | 68 | 13.0 | 29.0 | 0.00 | 0.00 | 0.00 | 58 | 1006.0 |
| 20260507151517 | 78 | 68 | 7.0 | 24.0 | 0.00 | 0.00 | 0.00 | 62 | 1006.3 |
| 20260507150538 | 78 | 90 | 8.0 | 25.0 | 0.00 | 0.00 | 0.00 | 63 | 1006.5 |
| 20260507145516 | 77 | 68 | 5.0 | 16.0 | 0.00 | 0.00 | 0.00 | 65 | 1006.7 |
| 20260507144557 | 77 | 90 | 9.0 | 30.0 | 0.00 | 0.00 | 0.00 | 65 | 1007.0 |
| 20260507143516 | 76 | 90 | 9.0 | 27.0 | 0.00 | 0.00 | 0.00 | 67 | 1007.3 |
| 20260507142517 | 76 | 90 | 8.0 | 25.0 | 0.00 | 0.00 | 0.00 | 68 | 1007.7 |
| 20260507141515 | 75 | 90 | 6.0 | 19.0 | 0.00 | 0.00 | 0.00 | 71 | 1007.8 |
| 20260507140517 | 74 | 90 | 9.0 | 22.0 | 0.00 | 0.00 | 0.00 | 73 | 1007.9 |
| 20260507135537 | 73 | 90 | 9.0 | 22.0 | 0.00 | 0.00 | 0.00 | 75 | 1008.2 |
| 20260507134516 | 72 | 68 | 8.0 | 25.0 | 0.00 | 0.00 | 0.00 | 77 | 1008.2 |
| 20260507133516 | 71 | 90 | 9.0 | 23.0 | 0.00 | 0.00 | 0.00 | 79 | 1008.4 |
| 20260507132516 | 71 | 68 | 8.0 | 20.0 | 0.00 | 0.00 | 0.00 | 79 | 1008.7 |
| 20260507131517 | 70 | 68 | 11.0 | 20.0 | 0.00 | 0.00 | 0.00 | 80 | 1009.1 |
| 20260507130537 | 70 | 68 | 7.0 | 16.0 | 0.00 | 0.00 | 0.00 | 80 | 1009.1 |
| 20260507125516 | 70 | 90 | 10.0 | 22.0 | 0.00 | 0.00 | 0.00 | 81 | 1009.3 |
| 20260507124516 | 70 | 68 | 10.0 | 20.0 | 0.00 | 0.00 | 0.00 | 80 | 1009.4 |
| 20260507123536 | 70 | 68 | 8.0 | 20.0 | 0.00 | 0.00 | 0.00 | 80 | 1009.5 |
| 20260507122517 | 70 | 68 | 13.0 | 20.0 | 0.00 | 0.00 | 0.00 | 81 | 1009.6 |
| 20260507121516 | 70 | 90 | 8.0 | 17.0 | 0.00 | 0.00 | 0.00 | 81 | 1009.8 |
| 20260507120516 | 70 | 68 | 9.0 | 19.0 | 0.00 | 0.00 | 0.00 | 81 | 1009.8 |
| 20260507115515 | 70 | 90 | 7.0 | 17.0 | 0.00 | 0.00 | 0.00 | 81 | 1009.5 |
| 20260507114516 | 70 | 68 | 11.0 | 22.0 | 0.00 | 0.00 | 0.00 | 82 | 1009.5 |
| 20260507113516 | 70 | 68 | 8.0 | 20.0 | 0.00 | 0.00 | 0.00 | 82 | 1009.5 |
| 20260507112517 | 70 | 68 | 11.0 | 21.0 | 0.00 | 0.00 | 0.00 | 82 | 1009.2 |
| 20260507111536 | 69 | 68 | 9.0 | 24.0 | 0.00 | 0.00 | 0.00 | 83 | 1009.0 |
| 20260507110518 | 69 | 90 | 11.0 | 22.0 | 0.00 | 0.00 | 0.00 | 83 | 1008.9 |
| 20260507105537 | 69 | 68 | 10.0 | 22.0 | 0.00 | 0.00 | 0.00 | 84 | 1008.8 |
| 20260507104515 | 69 | 68 | 12.0 | 20.0 | 0.00 | 0.00 | 0.00 | 84 | 1008.7 |
| 20260507103516 | 69 | 90 | 9.0 | 19.0 | 0.00 | 0.00 | 0.00 | 84 | 1008.9 |
| 20260507102517 | 69 | 68 | 11.0 | 19.0 | 0.00 | 0.00 | 0.00 | 84 | 1009.3 |
| 20260507101516 | 69 | 68 | 12.0 | 21.0 | 0.00 | 0.00 | 0.00 | 84 | 1009.2 |
| 20260507100516 | 69 | 68 | 9.0 | 19.0 | 0.00 | 0.00 | 0.00 | 84 | 1009.1 |
| 20260507095536 | 68 | 68 | 9.0 | 15.0 | 0.00 | 0.00 | 0.00 | 85 | 1009.1 |
| 20260507094517 | 69 | 68 | 11.0 | 20.0 | 0.00 | 0.00 | 0.00 | 85 | 1009.2 |
| 20260507093537 | 68 | 68 | 8.0 | 20.0 | 0.00 | 0.00 | 0.00 | 85 | 1009.2 |
| 20260507092517 | 68 | 68 | 10.0 | 22.0 | 0.00 | 0.00 | 0.00 | 86 | 1009.2 |
| 20260507091516 | 68 | 90 | 9.0 | 17.0 | 0.00 | 0.00 | 0.00 | 86 | 1009.1 |
| 20260507090517 | 68 | 68 | 11.0 | 19.0 | 0.00 | 0.00 | 0.00 | 86 | 1009.2 |
| 20260507085515 | 68 | 68 | 12.0 | 20.0 | 0.00 | 0.00 | 0.00 | 86 | 1009.4 |
| 20260507084517 | 68 | 90 | 10.0 | 18.0 | 0.00 | 0.00 | 0.00 | 86 | 1009.4 |
| 20260507083517 | 68 | 68 | 10.0 | 19.0 | 0.00 | 0.00 | 0.00 | 86 | 1009.4 |
| 20260507082517 | 68 | 68 | 11.0 | 18.0 | 0.00 | 0.00 | 0.00 | 86 | 1009.5 |
| 20260507081515 | 68 | 68 | 12.0 | 18.0 | 0.00 | 0.00 | 0.00 | 86 | 1009.8 |
| 20260507080516 | 68 | 90 | 11.0 | 20.0 | 0.00 | 0.00 | 0.00 | 85 | 1009.7 |
| 20260507075537 | 68 | 68 | 13.0 | 21.0 | 0.00 | 0.00 | 0.00 | 86 | 1009.9 |
| 20260507074516 | 67 | 68 | 11.0 | 19.0 | 0.00 | 0.00 | 0.00 | 86 | 1009.9 |
| 20260507073517 | 68 | 68 | 12.0 | 22.0 | 0.00 | 0.00 | 0.00 | 86 | 1010.1 |
| 20260507072637 | 68 | 68 | 12.0 | 20.0 | 0.00 | 0.00 | 0.00 | 86 | 1010.3 |
| 20260507071516 | 67 | 68 | 10.0 | 18.0 | 0.00 | 0.00 | 0.00 | 86 | 1010.4 |
| 20260507070517 | 68 | 68 | 10.0 | 19.0 | 0.00 | 0.00 | 0.00 | 86 | 1010.5 |
| 20260507065517 | 68 | 68 | 12.0 | 24.0 | 0.00 | 0.00 | 0.00 | 85 | 1010.7 |